Wind_Speed
17 15 14 12 11 12 14 14 14 13 13 15 18 21 21 23 16 16 12 13 11 14 17 15 14 16 14 13 15 15 11 10
18 18 17 16 15 15 16 17 16 16 15 19 21 20 23 22 18 21 11 13 14 17 17 15 17 17 15 14 13 16 7 10
19 21 20 19 18 17 17 18 18 18 18 21 21 21 23 22 20 22 14 15 16 16 17 17 17 17 15 14 13 11 6 10
19 22 23 22 22 20 20 21 22 23 23 24 23 24 22 19 22 24 18 20 19 16 16 15 16 17 16 14 13 10 11 10
19 20 24 24 24 23 22 20 22 23 23 23 25 22 22 23 25 25 23 22 22 19 16 16 16 18 16 15 12 13 11 11
20 20 21 24 22 26 26 23 21 21 22 25 26 27 30 24 29 25 24 25 24 22 17 16 17 16 16 16 16 14 14 8
19 20 22 21 24 27 30 25 24 24 22 25 27 25 31 25 25 25 24 28 29 25 19 22 23 20 17 21 16 13 15 12
18 21 21 22 25 29 32 31 24 25 26 27 29 28 28 27 29 33 28 31 29 25 25 28 22 24 25 23 17 14 15 12
15 18 20 23 24 26 32 34 33 29 28 29 29 31 30 28 30 30 34 33 31 29 32 27 28 22 27 23 19 16 16 16
19 18 20 23 24 26 30 34 37 34 31 31 32 30 31 30 32 31 34 32 33 32 27 28 28 24 26 24 19 18 18 17
20 21 22 26 25 26 29 30 37 40 33 28 33 31 33 31 30 31 34 37 28 29 31 30 27 24 26 26 21 19 18 17
20 23 24 26 26 26 27 31 30 40 42 29 28 29 35 34 34 34 34 43 37 37 33 29 27 28 25 27 22 23 19 19
18 20 24 26 26 27 31 33 37 34 39 35 31 32 30 32 32 34 35 39 39 39 43 36 32 31 29 28 24 23 22 20
15 18 18 21 25 26 28 35 41 37 37 36 34 31 31 27 33 36 35 33 37 39 39 43 37 35 38 35 23 21 22 22
11 13 15 18 21 23 30 33 35 35 39 38 35 34 29 26 28 33 40 37 46 40 42 50 42 40 39 40 25 19 27 24
9 9 12 16 19 23 30 33 34 34 36 36 33 29 25 27 27 31 37 40 40 42 45 50 44 41 39 38 27 27 31 22
10 7 9 13 16 22 23 30 24 19 22 25 34 28 25 25 28 32 35 43 36 54 48 54 50 44 46 38 34 23 32 24
11 10 8 15 15 26 23 31 21 24 22 26 22 24 27 29 29 31 32 37 37 55 47 59 59 45 44 40 37 27 34 25
12 11 9 10 14 19 27 26 25 22 22 19 20 26 28 29 28 26 24 26 37 47 49 63 58 47 44 40 32 32 28 25
13 12 10 10 11 17 27 25 23 20 19 20 20 22 22 21 21 22 15 16 26 45 52 57 62 50 47 40 32 33 27 27
Wind_Direction
230 225 220 216 209 210 207 209 217 215 214 219 221 219 216 210 226 197 212 187 192 187 213 205 197 184 177 170 161 155 139 161
223 231 228 225 218 213 213 210 212 217 213 216 224 226 220 217 225 202 218 216 208 200 216 208 196 183 181 172 167 151 143 165
220 234 232 230 224 221 216 212 211 214 214 218 225 221 222 223 226 212 221 218 224 232 217 203 190 182 182 176 169 168 173 169
224 228 236 227 228 226 219 218 212 212 214 216 216 216 219 212 213 213 227 221 225 217 207 201 195 188 184 177 163 179 172 179
218 222 234 228 229 229 220 215 214 215 214 213 219 214 218 217 212 221 223 217 211 208 201 203 189 179 188 181 171 172 172 188
222 216 227 233 222 227 230 215 211 215 215 215 223 215 218 220 216 217 214 213 209 206 201 226 187 178 186 179 168 173 172 184
222 220 222 223 221 232 232 216 225 212 217 223 218 216 223 219 211 220 215 211 211 212 205 199 186 182 182 190 168 176 171 178
225 221 221 232 228 236 234 225 221 227 213 222 224 219 221 218 218 215 213 217 215 209 219 194 188 179 184 186 177 177 172 175
230 232 224 226 242 235 235 236 220 221 219 217 224 227 225 218 224 224 223 223 215 237 202 201 185 186 183 169 179 176 172 167
244 244 234 232 226 249 234 236 234 223 225 226 223 226 230 231 229 235 231 220 220 211 198 191 187 179 185 178 179 177 173 171
250 246 243 239 232 226 249 241 234 231 221 230 231 227 231 234 236 239 232 224 231 211 190 186 184 186 189 175 178 176 176 174
253 251 243 237 237 227 226 241 245 230 229 219 233 227 231 233 238 239 235 235 233 225 208 182 193 190 185 175 178 185 175 181
257 257 256 241 231 224 220 223 231 230 227 220 233 237 230 233 236 238 232 233 226 232 216 191 193 192 186 175 180 181 178 183
269 254 252 239 228 225 223 220 225 226 223 217 220 229 240 234 227 228 230 225 229 218 215 196 194 192 180 170 165 179 182 187
291 256 246 235 222 217 218 225 230 224 228 227 226 233 233 232 226 222 226 230 219 230 221 199 197 196 192 179 165 183 180 188
323 274 246 236 220 223 223 221 215 220 222 226 227 232 231 222 223 225 230 231 227 228 219 201 194 194 190 188 182 182 176 177
329 306 258 238 218 215 222 216 209 228 221 232 226 229 223 220 225 227 234 229 233 226 220 210 196 196 191 189 187 190 189 183
332 319 278 243 232 212 219 212 204 211 204 212 213 217 218 220 229 238 236 238 240 217 219 207 194 198 191 191 191 190 181 187
336 316 291 258 236 218 206 213 207 215 214 210 216 223 225 228 229 227 227 232 213 221 212 199 192 195 193 193 194 192 188 196
340 331 293 270 256 227 209 211 212 211 219 212 217 230 232 224 225 224 226 216 226 224 220 207 193 195 194 196 194 190 187 197
Height
1482 1484 1487 1488 1491 1493 1494 1496 1499 1501 1504 1506 1506 1506 1511 1513 1516 1517 1519 1523 1523 1524 1529 1530 1532 1534 1537 1541 1543 1546 1546 1548
1479 1482 1484 1486 1489 1491 1493 1495 1498 1500 1502 1505 1506 1508 1510 1513 1515 1517 1519 1520 1521 1524 1526 1527 1531 1534 1536 1539 1544 1546 1547 1550
1476 1478 1481 1483 1486 1488 1490 1493 1496 1498 1500 1503 1505 1508 1510 1511 1513 1515 1517 1518 1520 1523 1525 1527 1530 1532 1536 1539 1542 1547 1550 1552
1474 1475 1477 1480 1482 1484 1487 1489 1492 1494 1496 1499 1503 1506 1507 1510 1511 1513 1516 1517 1519 1523 1526 1529 1530 1530 1536 1538 1542 1547 1550 1551
1472 1472 1473 1475 1477 1480 1483 1485 1488 1490 1493 1497 1499 1503 1505 1507 1509 1510 1513 1515 1517 1522 1524 1528 1529 1531 1535 1538 1542 1545 1549 1549
1469 1470 1469 1470 1474 1476 1478 1482 1484 1487 1490 1493 1495 1498 1500 1502 1505 1507 1510 1512 1514 1517 1521 1525 1529 1533 1535 1539 1541 1545 1547 1547
1465 1466 1465 1467 1469 1470 1473 1478 1478 1483 1487 1488 1491 1493 1494 1498 1502 1503 1506 1509 1510 1514 1518 1523 1527 1531 1534 1536 1540 1544 1546 1548
1460 1461 1462 1461 1463 1464 1468 1472 1476 1476 1481 1483 1485 1488 1490 1493 1496 1499 1502 1504 1507 1510 1515 1521 1524 1527 1530 1535 1540 1543 1545 1547
1456 1458 1458 1458 1456 1459 1462 1465 1469 1471 1474 1477 1479 1482 1485 1488 1490 1493 1496 1499 1501 1505 1511 1517 1521 1523 1528 1533 1538 1541 1543 1547
1452 1454 1454 1454 1454 1452 1455 1458 1461 1464 1467 1469 1472 1475 1479 1482 1485 1488 1491 1495 1499 1502 1506 1512 1516 1521 1526 1531 1535 1539 1541 1545
1446 1447 1448 1448 1449 1451 1448 1450 1453 1457 1462 1462 1466 1469 1473 1476 1478 1482 1486 1490 1495 1500 1501 1509 1515 1520 1523 1528 1532 1536 1539 1543
1439 1440 1440 1442 1443 1444 1447 1445 1445 1448 1452 1459 1460 1463 1466 1471 1472 1476 1481 1483 1488 1495 1501 1506 1514 1517 1521 1526 1530 1533 1537 1541
1434 1433 1432 1433 1435 1436 1439 1438 1438 1440 1445 1453 1454 1456 1460 1463 1466 1468 1474 1476 1480 1488 1495 1501 1509 1514 1517 1523 1527 1531 1535 1538
1428 1426 1426 1426 1428 1430 1432 1432 1431 1436 1441 1446 1449 1451 1452 1456 1460 1462 1466 1470 1475 1482 1487 1494 1503 1508 1509 1516 1523 1532 1533 1535
1422 1421 1421 1421 1423 1425 1424 1426 1429 1432 1435 1439 1443 1445 1448 1450 1453 1457 1461 1466 1468 1475 1480 1486 1497 1502 1504 1508 1515 1520 1527 1532
1417 1416 1416 1417 1417 1417 1417 1419 1423 1425 1430 1434 1437 1440 1442 1446 1449 1452 1456 1459 1462 1468 1472 1480 1489 1494 1501 1505 1510 1513 1518 1526
1413 1412 1412 1412 1412 1414 1413 1417 1421 1425 1428 1428 1431 1434 1438 1441 1443 1447 1449 1452 1454 1457 1463 1469 1482 1488 1493 1500 1505 1510 1513 1519
1411 1407 1406 1405 1406 1407 1409 1414 1418 1422 1423 1424 1426 1429 1432 1434 1438 1440 1443 1444 1446 1449 1453 1462 1471 1480 1488 1494 1498 1503 1507 1514
1409 1406 1404 1402 1402 1403 1406 1411 1415 1418 1419 1420 1422 1422 1425 1426 1430 1433 1435 1437 1439 1444 1448 1455 1465 1474 1482 1489 1495 1499 1504 1509
1405 1404 1402 1399 1399 1399 1403 1407 1411 1414 1417 1417 1419 1418 1420 1421 1425 1428 1429 1432 1435 1439 1443 1450 1457 1467 1476 1485 1491 1494 1500 1505